COSMO-SKYMED 4

Last updated on Wed Jul 09 2025 00:02:28 GMT+0000 (Coordinated Universal Time)

1 37216U 10060A 25189.54517232 .00000333 00000+0 48336-4 0 9996 2 37216 97.8876 13.1298 0001451 89.1950 270.9429 14.82152398793660
UTC large
Height (km)
Speed (km/s)
/
Latitude / Longitude
Inclination (degrees)
Orbital Period (minutes)
Azimuth
Elevation
Range (km)
Doppler Factor

Next 0 passes for location: London (51.5072 / 0.1276)

Sorry there are no passes over London.